Location: Drawsko Pomorskie
(53.5317°N, 15.8111°E)
Time: 02:49:14
(UTC+01:00)

Envisat - Pass Details

Date: 23 October 2019
Orbit: 764 x 766 km, 98.1° (Epoch: 21 November)

Event Time Altitude Azimuth Distance (km) Brightness Sun altitude
Rises 06:19:53 0° 28° (NNE) 3,246 6.6 -12.2°
Reaches altitude 10° 06:23:37 10° 56° (NE) 2,313 6.3 -11.7°
Maximum altitude 06:25:54 13° 83° (E) 2,108 6.7 -11.3°
Drops below altitude 10° 06:28:11 10° 110° (ESE) 2,304 6.8 -11.0°
Sets 06:31:52 0° 138° (SE) 3,223 7.0 -10.4°
